Location: Malmö
(55.6090°N, 13.0007°E)
Time: 09:13:49
(UTC+01:00)

ISS - Pass Details

Date: 25 January 2021
Orbit: 417 x 422 km, 51.6° (Epoch: 05 March)

Event Time Altitude Azimuth Distance (km) Brightness Sun altitude
Rises 17:56:03 0° 233° (SW) 2,368 1.5 -12.1°
Reaches altitude 10° 17:58:18 10° 222° (SW) 1,507 0.0 -12.4°
Maximum altitude 18:01:17 29° 160° (SSE) 812 -2.4 -12.8°
Enters shadow 18:03:05 18° 112° (ESE) 1,122 -2.1 -13.0°
